Kelso-Longview, WA

9:41 PM PDT on October 19, 2017 (GMT -0700)
Kelso-Longview

Weather History for KKLS - March, 2013

Change the Weather History Date:

Tuesday, March 19, 2013

  Actual Average Record
Temperature  
Mean Temperature 42 °F -  
Max Temperature 51 °F 53 °F 68 °F (1998)
Min Temperature 33 °F 38 °F 30 °F (2006)
Degree Days  
Heating Degree Days 23    
Moisture  
Dew Point 35 °F    
Average Humidity 79    
Maximum Humidity 87    
Minimum Humidity 54    
Precipitation  
Precipitation 0.40 in - - ()
Sea Level Pressure  
Sea Level Pressure 29.96 in    
Wind  
Wind Speed 2 mph (SE)    
Max Wind Speed 15 mph    
Max Gust Speed 22 mph    
Visibility 10 miles    
Events      
Averages and records for this station are not official NWS values.
T = Trace of Precipitation, MM = Missing Value Source: NWS Daily Summary

Daily Weather History Graph

Daily Weather History Graph

Search for Another Location

Airport or City:

Trip Planner

Search our weather history database for the weather conditions in past years. The results will help you decide how hot, cold, wet, or windy it might be!

Date:

Astronomy

Mar. 19, 2013 Rise Set
Actual Time 7:15 AM PDT 7:23 PM PDT
Civil Twilight 6:46 AM PDT 7:53 PM PDT
Nautical Twilight 6:11 AM PDT 8:28 PM PDT
Astronomical Twilight 5:35 AM PDT 9:04 PM PDT
Moon 11:52 AM PDT (3/19) 2:32 AM PDT (3/19)
Length of Visible Light 13h 07m
Length of Day
12h 07m
Waxing Crescent, 51% of the Moon is Illuminated
Mar 19
Waxing Crescent
Mar 27
Full
Apr 2
Last Quarter
Apr 10
New
Apr 18
First Quarter

Hourly Weather History & Observations

Time (PDT) Temp. Windchill Dew Point Humidity Pressure Visibility Wind Dir Wind Speed Gust Speed Precip Events Conditions
12:15 AM 35.6 °F - 30.2 °F 81% 30.20 in 10.0 mi Calm Calm - N/A   Clear
12:35 AM 35.6 °F - 30.2 °F 81% 30.18 in 10.0 mi Calm Calm - N/A   Clear
12:55 AM 33.8 °F - 30.2 °F 87% 30.18 in 10.0 mi Calm Calm - N/A   Clear
1:15 AM 35.6 °F - 30.2 °F 81% 30.17 in 10.0 mi Calm Calm - N/A   Clear
1:35 AM 33.8 °F - 30.2 °F 87% 30.16 in 10.0 mi Calm Calm - N/A   Clear
1:55 AM 33.8 °F - 30.2 °F 87% 30.16 in 10.0 mi Calm Calm - N/A   Clear
2:15 AM 33.8 °F - 30.2 °F 87% 30.16 in 10.0 mi Calm Calm - N/A   Clear
2:35 AM 33.8 °F - 30.2 °F 87% 30.15 in 10.0 mi Calm Calm - N/A   Partly Cloudy
2:55 AM 33.8 °F - 30.2 °F 87% 30.15 in 10.0 mi Calm Calm - N/A   Clear
3:15 AM 33.8 °F - 28.4 °F 81% 30.14 in 10.0 mi Calm Calm - N/A   Clear
3:35 AM 33.8 °F - 30.2 °F 87% 30.13 in 10.0 mi Calm Calm - N/A   Clear
3:55 AM 33.8 °F - 30.2 °F 87% 30.12 in 10.0 mi Calm Calm - N/A   Clear
4:15 AM 35.6 °F - 32.0 °F 87% 30.11 in 10.0 mi Calm Calm - N/A   Clear
4:35 AM 35.6 °F - 30.2 °F 81% 30.10 in 10.0 mi Calm Calm - N/A   Clear
4:55 AM 35.6 °F 32.8 °F 30.2 °F 81% 30.10 in 10.0 mi SE 3.5 mph - N/A   Clear
5:15 AM 35.6 °F - 30.2 °F 81% 30.09 in 10.0 mi Calm Calm - N/A   Clear
5:35 AM 33.8 °F - 30.2 °F 87% 30.09 in 10.0 mi Calm Calm - N/A   Clear
5:55 AM 33.8 °F - 30.2 °F 87% 30.09 in 10.0 mi Calm Calm - N/A   Clear
6:15 AM 35.6 °F - 30.2 °F 81% 30.08 in 10.0 mi Calm Calm - N/A   Clear
6:35 AM 33.8 °F 30.8 °F 30.2 °F 87% 30.08 in 10.0 mi South 3.5 mph - N/A   Clear
6:55 AM 35.6 °F - 30.2 °F 81% 30.08 in 10.0 mi Calm Calm - N/A   Clear
7:15 AM 35.6 °F - 32.0 °F 87% 30.07 in 10.0 mi Calm Calm - N/A   Scattered Clouds
7:35 AM 35.6 °F 31.7 °F 30.2 °F 81% 30.06 in 10.0 mi SSE 4.6 mph - N/A   Partly Cloudy
7:55 AM 35.6 °F - 32.0 °F 87% 30.07 in 10.0 mi Calm Calm - N/A   Mostly Cloudy
8:15 AM 37.4 °F - 32.0 °F 81% 30.07 in 10.0 mi Calm Calm - N/A   Scattered Clouds
8:35 AM 37.4 °F - 32.0 °F 81% 30.06 in 10.0 mi Calm Calm - N/A   Partly Cloudy
8:55 AM 37.4 °F - 32.0 °F 81% 30.06 in 10.0 mi Calm Calm - N/A   Scattered Clouds
9:15 AM 37.4 °F - 32.0 °F 81% 30.06 in 10.0 mi Calm Calm - N/A   Partly Cloudy
9:35 AM 39.2 °F - 32.0 °F 75% 30.06 in 10.0 mi Calm Calm - N/A   Clear
9:55 AM 39.2 °F - 33.8 °F 81% 30.05 in 10.0 mi Calm Calm - N/A   Mostly Cloudy
10:15 AM 41.0 °F - 32.0 °F 70% 30.04 in 10.0 mi Calm Calm - N/A   Mostly Cloudy
10:35 AM 41.0 °F - 33.8 °F 76% 30.03 in 10.0 mi Calm Calm - N/A   Overcast
10:55 AM 42.8 °F - 33.8 °F 70% 30.03 in 10.0 mi Calm Calm - N/A   Overcast
11:15 AM 44.6 °F 43.1 °F 33.8 °F 66% 30.02 in 10.0 mi SE 3.5 mph - N/A   Overcast
11:35 AM 44.6 °F 43.1 °F 33.8 °F 66% 30.01 in 10.0 mi SE 3.5 mph - N/A   Overcast
11:55 AM 44.6 °F - 35.6 °F 71% 30.00 in 10.0 mi Calm Calm - N/A   Overcast
12:15 PM 46.4 °F 42.9 °F 35.6 °F 66% 30.00 in 10.0 mi SSE 6.9 mph - N/A   Overcast
12:35 PM 46.4 °F 43.5 °F 35.6 °F 66% 29.98 in 10.0 mi SSE 5.8 mph - N/A   Overcast
12:55 PM 48.2 °F - 35.6 °F 62% 29.98 in 10.0 mi SE 3.5 mph - N/A   Overcast
1:15 PM 48.2 °F - 35.6 °F 62% 29.97 in 10.0 mi SSE 5.8 mph - N/A   Overcast
1:35 PM 50.0 °F - 33.8 °F 54% 29.96 in 10.0 mi SE 9.2 mph - N/A   Overcast
1:55 PM 48.2 °F - 35.6 °F 62% 29.95 in 10.0 mi SE 10.4 mph 16.1 mph N/A   Overcast
2:15 PM 48.2 °F - 37.4 °F 66% 29.94 in 10.0 mi SE 6.9 mph - N/A   Overcast
2:35 PM 48.2 °F - 35.6 °F 62% 29.93 in 10.0 mi SE 4.6 mph - N/A   Overcast
2:55 PM 48.2 °F - 37.4 °F 66% 29.91 in 10.0 mi Calm Calm - 0.01 in   Overcast
3:15 PM 48.2 °F - 37.4 °F 66% 29.90 in 10.0 mi North 3.5 mph - N/A   Overcast
3:35 PM 51.8 °F - 39.2 °F 62% 29.90 in 10.0 mi South 5.8 mph - N/A   Overcast
3:55 PM 51.8 °F - 39.2 °F 62% 29.89 in 10.0 mi Calm Calm - N/A   Overcast
4:15 PM 50.0 °F - 39.2 °F 66% 29.89 in 10.0 mi SE 4.6 mph - 0.01 in   Overcast
4:35 PM 48.2 °F - 39.2 °F 71% 29.89 in 10.0 mi SE 6.9 mph - 0.01 in   Overcast
4:55 PM 48.2 °F - 41.0 °F 76% 29.88 in 10.0 mi SSE 5.8 mph - 0.03 in   Overcast
5:15 PM 48.2 °F - 41.0 °F 76% 29.87 in 10.0 mi SE 6.9 mph - 0.01 in   Overcast
5:35 PM 46.4 °F 43.5 °F 42.8 °F 87% 29.85 in 10.0 mi SSE 5.8 mph - 0.04 in   Overcast
5:55 PM 46.4 °F 43.5 °F 42.8 °F 87% 29.84 in 9.0 mi SSE 5.8 mph - 0.08 in   Overcast
6:15 PM 46.4 °F 43.5 °F 41.0 °F 81% 29.82 in 10.0 mi SSE 5.8 mph - 0.04 in   Overcast
6:35 PM 46.4 °F 41.9 °F 41.0 °F 81% 29.79 in 10.0 mi SSE 9.2 mph - 0.04 in   Overcast
6:55 PM 46.4 °F 43.5 °F 41.0 °F 81% 29.79 in 10.0 mi SSE 5.8 mph - 0.04 in   Overcast
7:15 PM 44.6 °F 40.7 °F 39.2 °F 81% 29.78 in 10.0 mi SE 6.9 mph - N/A   Overcast
7:35 PM 44.6 °F 41.4 °F 41.0 °F 87% 29.77 in 10.0 mi SE 5.8 mph - 0.01 in   Overcast
7:55 PM 44.6 °F 39.2 °F 41.0 °F 87% 29.75 in 10.0 mi SE 10.4 mph - 0.05 in   Mostly Cloudy
8:15 PM 44.6 °F 41.4 °F 41.0 °F 87% 29.72 in 10.0 mi SSE 5.8 mph - N/A   Overcast
8:35 PM 44.6 °F 38.8 °F 41.0 °F 87% 29.72 in 10.0 mi SE 11.5 mph - N/A   Overcast
8:55 PM 44.6 °F 39.7 °F 41.0 °F 87% 29.71 in 7.0 mi SE 9.2 mph 18.4 mph N/A   Mostly Cloudy
9:15 PM 44.6 °F 37.8 °F 41.0 °F 87% 29.70 in 10.0 mi SE 15.0 mph 21.9 mph 0.01 in   Overcast
9:35 PM 44.6 °F 39.2 °F 41.0 °F 87% 29.69 in 10.0 mi SSE 10.4 mph 18.4 mph 0.03 in   Overcast
9:55 PM 44.6 °F 38.8 °F 41.0 °F 87% 29.69 in 10.0 mi SE 11.5 mph 18.4 mph 0.03 in   Overcast
10:15 PM 44.6 °F 39.2 °F 41.0 °F 87% 29.68 in 6.0 mi SE 10.4 mph 16.1 mph 0.02 in   Mostly Cloudy
10:35 PM 44.6 °F 38.8 °F 41.0 °F 87% 29.67 in 8.0 mi SE 11.5 mph - 0.05 in   Mostly Cloudy
10:55 PM 44.6 °F 39.7 °F 41.0 °F 87% 29.66 in 9.0 mi SE 9.2 mph - 0.05 in   Overcast
11:15 PM 44.6 °F 39.7 °F 41.0 °F 87% 29.66 in 8.0 mi SE 9.2 mph - 0.02 in   Overcast
11:35 PM 44.6 °F 39.2 °F 41.0 °F 87% 29.66 in 9.0 mi SE 10.4 mph 16.1 mph 0.07 in   Overcast
11:55 PM 44.6 °F 38.8 °F 41.0 °F 87% 29.65 in 8.0 mi SE 11.5 mph - 0.11 in   Mostly Cloudy